When you browse on this site, cookies collect data to enhance your experience and personalize the content and advertising you see.
Visit our Privacy Policy to learn more. By continuing to use the site, you agree to this use of cookies and data.
  • Em Portugal
  • Lista de países
  • Para 7 dias
  • Temperatura da água
  • Mapas de satélite
  • Mapa do tempo
  • Widgets de tempo
  • user-avatar
    Iniciar Sessão

    Previsão horária em Lipki

    Hoje, 18 Fevereiro, Segunda-feira

    Tempo Temperatura Precipitação Vento Pressão Humidade
    00:00 -3°C° 0 mm 2 m/s 758 mmHg 86%
    01:00 -4°C° 0 mm 2 m/s 758 mmHg 87%
    02:00 -5°C° 0 mm 2 m/s 759 mmHg 92%
    03:00 -5°C° 0 mm 2 m/s 759 mmHg 92%
    04:00 -4°C° 0 mm 1 m/s 759 mmHg 93%
    05:00 -4°C° 0 mm 1 m/s 760 mmHg 93%
    06:00 -4°C° 0 mm 1 m/s 760 mmHg 92%
    07:00 -4°C° 0 mm 1 m/s 760 mmHg 92%
    08:00 -4°C° 0 mm 1 m/s 761 mmHg 89%
    09:00 -3°C° 0 mm 1 m/s 761 mmHg 83%
    10:00 -3°C° 0 mm 0 m/s 761 mmHg 77%
    11:00 -2°C° 0 mm 0 m/s 761 mmHg 70%
    12:00 0°C° 0 mm 1 m/s 761 mmHg 68%
    13:00 0°C° 0 mm 1 m/s 761 mmHg 66%
    14:00 +1°C° 0 mm 1 m/s 761 mmHg 63%
    15:00 +1°C° 0 mm 1 m/s 760 mmHg 68%
    16:00 -2°C° 0 mm 2 m/s 760 mmHg 74%
    17:00 -3°C° 0 mm 2 m/s 759 mmHg 79%
    18:00 -3°C° 0 mm 2 m/s 759 mmHg 78%
    19:00 -4°C° 0 mm 3 m/s 758 mmHg 76%
    20:00 -4°C° 0 mm 3 m/s 758 mmHg 74%
    21:00 -4°C° 0 mm 4 m/s 757 mmHg 74%
    22:00 -4°C° 0 mm 4 m/s 757 mmHg 74%
    23:00 -4°C° 0 mm 4 m/s 756 mmHg 73%

    Amanhã, 19 Fevereiro, Terça-feira

    Tempo Temperatura Precipitação Vento Pressão Humidade
    00:00 -3°C° 0 mm 4 m/s 756 mmHg 76%
    01:00 -4°C° 0 mm 5 m/s 755 mmHg 78%
    02:00 -4°C° 0 mm 5 m/s 755 mmHg 80%
    03:00 -4°C° 0 mm 5 m/s 754 mmHg 83%
    04:00 -2°C° 0 mm 5 m/s 754 mmHg 85%
    05:00 -2°C° 0 mm 5 m/s 753 mmHg 88%
    06:00 -2°C° 0 mm 5 m/s 753 mmHg 88%
    07:00 -1°C° 0 mm 5 m/s 752 mmHg 89%
    08:00 -1°C° 0 mm 4 m/s 752 mmHg 90%
    09:00 -1°C° 0 mm 4 m/s 751 mmHg 90%
    10:00 0°C° 0 mm 4 m/s 751 mmHg 90%
    11:00 0°C° 0 mm 4 m/s 750 mmHg 90%
    12:00 0°C° 0 mm 4 m/s 749 mmHg 89%
    13:00 0°C° 0 mm 5 m/s 749 mmHg 89%
    14:00 +1°C° 0 mm 5 m/s 748 mmHg 89%
    15:00 +1°C° 0 mm 5 m/s 747 mmHg 89%
    16:00 +1°C° 0 mm 5 m/s 747 mmHg 89%
    17:00 +1°C° 0 mm 5 m/s 746 mmHg 88%
    18:00 +1°C° 0 mm 5 m/s 745 mmHg 89%
    19:00 +1°C° 0 mm 5 m/s 744 mmHg 89%
    20:00 +1°C° 0 mm 5 m/s 744 mmHg 89%
    21:00 +1°C° 0.2 mm 5 m/s 743 mmHg 89%
    22:00 0°C° 0.2 mm 5 m/s 742 mmHg 89%
    23:00 0°C° 0.2 mm 5 m/s 742 mmHg 89%

    Depois de amanhã, 20 Fevereiro, Quarta-feira

    Tempo Temperatura Precipitação Vento Pressão Humidade
    00:00 +1°C° 0.2 mm 4 m/s 742 mmHg 90%
    01:00 +1°C° 0.2 mm 4 m/s 742 mmHg 91%
    02:00 +1°C° 0.2 mm 4 m/s 742 mmHg 92%
    03:00 +1°C° 0.1 mm 4 m/s 741 mmHg 92%
    04:00 +1°C° 0.1 mm 4 m/s 741 mmHg 91%
    05:00 +1°C° 0.1 mm 4 m/s 741 mmHg 91%
    06:00 +1°C° 0.2 mm 4 m/s 741 mmHg 90%
    07:00 +1°C° 0.2 mm 4 m/s 741 mmHg 89%
    08:00 +1°C° 0.2 mm 4 m/s 741 mmHg 89%
    09:00 +1°C° 0.1 mm 4 m/s 740 mmHg 87%
    10:00 +1°C° 0.1 mm 5 m/s 740 mmHg 84%
    11:00 +1°C° 0.1 mm 5 m/s 740 mmHg 82%
    12:00 +1°C° 0.3 mm 5 m/s 740 mmHg 83%
    13:00 +1°C° 0.3 mm 5 m/s 740 mmHg 83%
    14:00 +1°C° 0.3 mm 5 m/s 739 mmHg 84%
    15:00 0°C° 0.5 mm 5 m/s 740 mmHg 83%
    16:00 0°C° 0.5 mm 5 m/s 740 mmHg 82%
    17:00 -1°C° 0.5 mm 6 m/s 740 mmHg 81%
    18:00 -2°C° 0.2 mm 6 m/s 740 mmHg 82%
    19:00 -3°C° 0.2 mm 6 m/s 741 mmHg 84%
    20:00 -3°C° 0.2 mm 6 m/s 742 mmHg 86%
    21:00 -4°C° 0.1 mm 6 m/s 743 mmHg 83%
    22:00 -4°C° 0.1 mm 6 m/s 743 mmHg 81%
    23:00 -5°C° 0.1 mm 6 m/s 744 mmHg 78%

    21 Fevereiro, Quinta-feira

    Tempo Temperatura Precipitação Vento Pressão Humidade
    00:00 -5°C° 0 mm 6 m/s 745 mmHg 78%
    01:00 -5°C° 0 mm 6 m/s 746 mmHg 77%
    02:00 -5°C° 0 mm 6 m/s 746 mmHg 77%
    03:00 -6°C° 0.1 mm 6 m/s 747 mmHg 75%
    04:00 -6°C° 0.1 mm 6 m/s 748 mmHg 73%
    05:00 -6°C° 0.1 mm 6 m/s 748 mmHg 72%
    06:00 -8°C° 0 mm 6 m/s 749 mmHg 71%
    07:00 -8°C° 0 mm 6 m/s 750 mmHg 70%
    08:00 -9°C° 0 mm 6 m/s 751 mmHg 69%
    09:00 -8°C° 0 mm 6 m/s 752 mmHg 68%
    10:00 -7°C° 0 mm 5 m/s 752 mmHg 66%
    11:00 -7°C° 0 mm 5 m/s 753 mmHg 65%
    12:00 -7°C° 0 mm 5 m/s 754 mmHg 64%
    13:00 -7°C° 0 mm 5 m/s 754 mmHg 63%
    14:00 -7°C° 0 mm 5 m/s 755 mmHg 62%
    15:00 -7°C° 0 mm 5 m/s 756 mmHg 63%
    16:00 -7°C° 0 mm 4 m/s 757 mmHg 64%
    17:00 -8°C° 0 mm 4 m/s 757 mmHg 65%
    18:00 -8°C° 0 mm 4 m/s 758 mmHg 66%
    19:00 -9°C° 0 mm 4 m/s 759 mmHg 67%
    20:00 -9°C° 0 mm 4 m/s 760 mmHg 67%
    21:00 -10°C° 0 mm 4 m/s 761 mmHg 69%
    22:00 -10°C° 0 mm 4 m/s 762 mmHg 70%
    23:00 -9°C° 0 mm 3 m/s 763 mmHg 71%

    22 Fevereiro, Sexta-feira

    Tempo Temperatura Precipitação Vento Pressão Humidade
    00:00 -9°C° 0 mm 3 m/s 763 mmHg 73%
    01:00 -10°C° 0 mm 3 m/s 764 mmHg 75%
    02:00 -10°C° 0 mm 3 m/s 765 mmHg 77%
    03:00 -10°C° 0 mm 3 m/s 765 mmHg 76%
    04:00 -10°C° 0 mm 3 m/s 766 mmHg 75%
    05:00 -10°C° 0 mm 3 m/s 766 mmHg 74%
    06:00 -10°C° 0 mm 3 m/s 767 mmHg 72%
    07:00 -10°C° 0 mm 3 m/s 767 mmHg 70%
    08:00 -10°C° 0 mm 4 m/s 768 mmHg 68%
    09:00 -9°C° 0 mm 4 m/s 768 mmHg 62%
    10:00 -8°C° 0 mm 4 m/s 769 mmHg 57%
    11:00 -7°C° 0 mm 5 m/s 769 mmHg 51%
    12:00 -7°C° 0 mm 5 m/s 769 mmHg 52%
    13:00 -5°C° 0 mm 4 m/s 770 mmHg 52%
    14:00 -5°C° 0 mm 4 m/s 770 mmHg 52%
    15:00 -5°C° 0 mm 4 m/s 770 mmHg 57%
    16:00 -7°C° 0 mm 4 m/s 770 mmHg 62%
    17:00 -7°C° 0 mm 3 m/s 771 mmHg 66%
    18:00 -7°C° 0 mm 3 m/s 771 mmHg 70%
    19:00 -8°C° 0 mm 3 m/s 771 mmHg 74%
    20:00 -7°C° 0 mm 2 m/s 771 mmHg 77%
    21:00 -8°C° 0 mm 2 m/s 771 mmHg 80%
    22:00 -7°C° 0 mm 1 m/s 771 mmHg 82%
    23:00 -7°C° 0 mm 1 m/s 772 mmHg 85%

    23 Fevereiro, Sábado

    Tempo Temperatura Precipitação Vento Pressão Humidade
    00:00 -7°C° 0 mm 1 m/s 771 mmHg 84%
    01:00 -7°C° 0 mm 1 m/s 771 mmHg 84%
    02:00 -8°C° 0 mm 1 m/s 771 mmHg 84%
    03:00 -8°C° 0 mm 2 m/s 770 mmHg 79%
    04:00 -8°C° 0 mm 2 m/s 769 mmHg 75%
    05:00 -7°C° 0 mm 2 m/s 768 mmHg 70%
    06:00 -8°C° 0.3 mm 3 m/s 768 mmHg 77%
    07:00 -8°C° 0.3 mm 3 m/s 767 mmHg 84%
    08:00 -8°C° 0.3 mm 3 m/s 766 mmHg 91%
    09:00 -8°C° 0.2 mm 3 m/s 765 mmHg 90%
    10:00 -8°C° 0.2 mm 4 m/s 764 mmHg 88%
    11:00 -8°C° 0.2 mm 4 m/s 764 mmHg 86%
    12:00 -7°C° 0.1 mm 4 m/s 763 mmHg 86%
    13:00 -7°C° 0.1 mm 4 m/s 763 mmHg 86%
    14:00 -5°C° 0.1 mm 4 m/s 762 mmHg 87%
    15:00 -5°C° 0.1 mm 3 m/s 762 mmHg 89%
    16:00 -5°C° 0.1 mm 3 m/s 762 mmHg 91%
    17:00 -3°C° 0.1 mm 2 m/s 762 mmHg 92%
    18:00 -3°C° 0 mm 2 m/s 762 mmHg 94%
    19:00 -2°C° 0 mm 2 m/s 762 mmHg 95%
    20:00 0°C° 0 mm 1 m/s 762 mmHg 97%
    21:00 0°C° 0 mm 1 m/s 762 mmHg 97%
    22:00 -1°C° 0 mm 2 m/s 762 mmHg 97%
    23:00 -1°C° 0 mm 2 m/s 762 mmHg 97%
    Mostrar mais